When you browse on this site, cookies collect data to enhance your experience and personalize the content and advertising you see.
Visit our Privacy Policy to learn more. By continuing to use the site, you agree to this use of cookies and data.
  • In United Kingdom
  • List of Countries
  • For 7 days
  • Water Temperature
  • Satellite Maps
  • Weather Map
  • Weather Widgets
  • user-avatar
    Login

    Hourly Weather Dori

    Today, 17 November, Saturday

    Time Temperature Precipitation Wind Pressure Humidity
    00:00 +29°C° 0 mm 3 mps 734 mmHg 12%
    01:00 +29°C° 0 mm 3 mps 734 mmHg 13%
    02:00 +28°C° 0 mm 3 mps 734 mmHg 13%
    03:00 +28°C° 0 mm 3 mps 734 mmHg 14%
    04:00 +27°C° 0 mm 3 mps 734 mmHg 14%
    05:00 +27°C° 0 mm 3 mps 734 mmHg 15%
    06:00 +26°C° 0 mm 3 mps 735 mmHg 15%
    07:00 +28°C° 0 mm 3 mps 735 mmHg 13%
    08:00 +32°C° 0 mm 4 mps 735 mmHg 12%
    09:00 +34°C° 0 mm 4 mps 736 mmHg 10%
    10:00 +35°C° 0 mm 4 mps 735 mmHg 10%
    11:00 +37°C° 0 mm 4 mps 735 mmHg 9%
    12:00 +38°C° 0 mm 3 mps 734 mmHg 8%
    13:00 +39°C° 0 mm 2 mps 734 mmHg 8%
    14:00 +39°C° 0 mm 1 mps 733 mmHg 7%
    15:00 +36°C° 0 mm 0 mps 732 mmHg 7%
    16:00 +36°C° 0 mm 1 mps 732 mmHg 8%
    17:00 +35°C° 0 mm 1 mps 732 mmHg 9%
    18:00 +33°C° 0 mm 1 mps 732 mmHg 10%
    19:00 +34°C° 0 mm 2 mps 733 mmHg 10%
    20:00 +32°C° 0 mm 2 mps 733 mmHg 10%
    21:00 +33°C° 0 mm 3 mps 734 mmHg 10%
    22:00 +31°C° 0 mm 2 mps 734 mmHg 11%
    23:00 +31°C° 0 mm 2 mps 734 mmHg 11%

    Tomorrow, 18 November, Sunday

    Time Temperature Precipitation Wind Pressure Humidity
    00:00 +30°C° 0 mm 2 mps 734 mmHg 12%
    01:00 +30°C° 0 mm 2 mps 733 mmHg 12%
    02:00 +29°C° 0 mm 2 mps 733 mmHg 13%
    03:00 +28°C° 0 mm 2 mps 733 mmHg 13%
    04:00 +28°C° 0 mm 2 mps 733 mmHg 14%
    05:00 +28°C° 0 mm 2 mps 733 mmHg 14%
    06:00 +27°C° 0 mm 2 mps 733 mmHg 14%
    07:00 +29°C° 0 mm 3 mps 734 mmHg 13%
    08:00 +33°C° 0 mm 3 mps 734 mmHg 11%
    09:00 +35°C° 0 mm 4 mps 735 mmHg 10%
    10:00 +37°C° 0 mm 3 mps 734 mmHg 9%
    11:00 +38°C° 0 mm 3 mps 734 mmHg 8%
    12:00 +39°C° 0 mm 2 mps 734 mmHg 7%
    13:00 +40°C° 0 mm 1 mps 733 mmHg 7%
    14:00 +40°C° 0 mm 1 mps 732 mmHg 7%
    15:00 +37°C° 0 mm 0 mps 732 mmHg 7%
    16:00 +39°C° 0 mm 1 mps 732 mmHg 8%
    17:00 +36°C° 0 mm 1 mps 732 mmHg 9%
    18:00 +36°C° 0 mm 2 mps 732 mmHg 9%
    19:00 +35°C° 0 mm 2 mps 732 mmHg 10%
    20:00 +35°C° 0 mm 2 mps 733 mmHg 10%
    21:00 +34°C° 0 mm 3 mps 733 mmHg 10%
    22:00 +34°C° 0 mm 2 mps 733 mmHg 10%
    23:00 +32°C° 0 mm 2 mps 733 mmHg 11%

    Day after tomorrow, 19 November, Monday

    Time Temperature Precipitation Wind Pressure Humidity
    00:00 +32°C° 0 mm 2 mps 733 mmHg 11%
    01:00 +31°C° 0 mm 2 mps 733 mmHg 11%
    02:00 +31°C° 0 mm 2 mps 732 mmHg 12%
    03:00 +30°C° 0 mm 2 mps 732 mmHg 12%
    04:00 +30°C° 0 mm 2 mps 732 mmHg 12%
    05:00 +29°C° 0 mm 2 mps 732 mmHg 12%
    06:00 +29°C° 0 mm 2 mps 732 mmHg 13%
    07:00 +31°C° 0 mm 3 mps 733 mmHg 11%
    08:00 +34°C° 0 mm 3 mps 734 mmHg 10%
    09:00 +36°C° 0 mm 3 mps 734 mmHg 9%
    10:00 +38°C° 0 mm 2 mps 734 mmHg 8%
    11:00 +39°C° 0 mm 2 mps 733 mmHg 8%
    12:00 +40°C° 0 mm 1 mps 733 mmHg 7%
    13:00 +40°C° 0 mm 1 mps 732 mmHg 7%
    14:00 +37°C° 0 mm 0 mps 732 mmHg 7%
    15:00 +37°C° 0 mm 0 mps 731 mmHg 8%
    16:00 +39°C° 0 mm 1 mps 731 mmHg 8%
    17:00 +36°C° 0 mm 1 mps 731 mmHg 9%
    18:00 +36°C° 0 mm 2 mps 731 mmHg 10%
    19:00 +36°C° 0 mm 2 mps 732 mmHg 10%
    20:00 +35°C° 0 mm 3 mps 732 mmHg 10%
    21:00 +35°C° 0 mm 3 mps 733 mmHg 10%
    22:00 +35°C° 0 mm 3 mps 733 mmHg 11%
    23:00 +34°C° 0 mm 3 mps 733 mmHg 11%

    20 November, Tuesday

    Time Temperature Precipitation Wind Pressure Humidity
    00:00 +34°C° 0 mm 3 mps 733 mmHg 11%
    01:00 +33°C° 0 mm 3 mps 733 mmHg 12%
    02:00 +32°C° 0 mm 4 mps 733 mmHg 13%
    03:00 +30°C° 0 mm 4 mps 732 mmHg 14%
    04:00 +30°C° 0 mm 5 mps 733 mmHg 17%
    05:00 +29°C° 0 mm 5 mps 733 mmHg 19%
    06:00 +29°C° 0 mm 5 mps 733 mmHg 22%
    07:00 +30°C° 0 mm 6 mps 734 mmHg 22%
    08:00 +32°C° 0 mm 7 mps 734 mmHg 21%
    09:00 +34°C° 0 mm 8 mps 735 mmHg 21%
    10:00 +35°C° 0 mm 7 mps 735 mmHg 18%
    11:00 +38°C° 0 mm 7 mps 734 mmHg 16%
    12:00 +39°C° 0 mm 6 mps 734 mmHg 14%
    13:00 +39°C° 0 mm 6 mps 734 mmHg 13%
    14:00 +39°C° 0 mm 5 mps 733 mmHg 13%
    15:00 +38°C° 0 mm 4 mps 733 mmHg 12%
    16:00 +37°C° 0 mm 4 mps 733 mmHg 14%
    17:00 +36°C° 0 mm 4 mps 733 mmHg 15%
    18:00 +35°C° 0 mm 3 mps 733 mmHg 16%
    19:00 +34°C° 0 mm 4 mps 734 mmHg 17%
    20:00 +34°C° 0 mm 4 mps 734 mmHg 19%
    21:00 +33°C° 0 mm 4 mps 735 mmHg 20%
    22:00 +33°C° 0 mm 4 mps 735 mmHg 20%
    23:00 +32°C° 0 mm 4 mps 734 mmHg 21%

    21 November, Wednesday

    Time Temperature Precipitation Wind Pressure Humidity
    00:00 +32°C° 0 mm 4 mps 734 mmHg 22%
    01:00 +30°C° 0 mm 4 mps 734 mmHg 22%
    02:00 +30°C° 0 mm 4 mps 733 mmHg 22%
    03:00 +30°C° 0 mm 4 mps 733 mmHg 23%
    04:00 +30°C° 0 mm 4 mps 733 mmHg 23%
    05:00 +29°C° 0 mm 4 mps 733 mmHg 24%
    06:00 +29°C° 0 mm 4 mps 734 mmHg 24%
    07:00 +32°C° 0 mm 5 mps 734 mmHg 22%
    08:00 +34°C° 0 mm 5 mps 735 mmHg 21%
    09:00 +35°C° 0 mm 6 mps 735 mmHg 19%
    10:00 +38°C° 0 mm 6 mps 735 mmHg 17%
    11:00 +39°C° 0 mm 6 mps 734 mmHg 15%
    12:00 +40°C° 0 mm 6 mps 734 mmHg 13%
    13:00 +40°C° 0 mm 6 mps 733 mmHg 12%
    14:00 +41°C° 0 mm 5 mps 733 mmHg 12%
    15:00 +41°C° 0 mm 4 mps 732 mmHg 11%
    16:00 +40°C° 0 mm 4 mps 732 mmHg 11%
    17:00 +38°C° 0 mm 3 mps 733 mmHg 12%
    18:00 +37°C° 0 mm 3 mps 733 mmHg 12%
    19:00 +36°C° 0 mm 3 mps 733 mmHg 12%
    20:00 +35°C° 0 mm 3 mps 734 mmHg 13%
    21:00 +34°C° 0 mm 2 mps 734 mmHg 13%
    22:00 +32°C° 0 mm 2 mps 734 mmHg 13%
    23:00 +31°C° 0 mm 2 mps 734 mmHg 12%

    22 November, Thursday

    Time Temperature Precipitation Wind Pressure Humidity
    00:00 +31°C° 0 mm 2 mps 733 mmHg 12%
    01:00 +30°C° 0 mm 3 mps 733 mmHg 12%
    02:00 +30°C° 0 mm 3 mps 733 mmHg 12%
    03:00 +30°C° 0 mm 3 mps 732 mmHg 12%
    04:00 +29°C° 0 mm 3 mps 733 mmHg 12%
    05:00 +29°C° 0 mm 3 mps 733 mmHg 11%
    06:00 +28°C° 0 mm 4 mps 733 mmHg 11%
    07:00 +30°C° 0 mm 5 mps 734 mmHg 10%
    08:00 +33°C° 0 mm 6 mps 734 mmHg 9%
    09:00 +35°C° 0 mm 7 mps 735 mmHg 7%
    10:00 +38°C° 0 mm 7 mps 734 mmHg 7%
    11:00 +39°C° 0 mm 7 mps 734 mmHg 6%
    12:00 +41°C° 0 mm 7 mps 733 mmHg 5%
    13:00 +41°C° 0 mm 6 mps 733 mmHg 5%
    14:00 +41°C° 0 mm 6 mps 732 mmHg 5%
    15:00 +41°C° 0 mm 5 mps 732 mmHg 5%
    16:00 +40°C° 0 mm 5 mps 732 mmHg 6%
    17:00 +37°C° 0 mm 4 mps 732 mmHg 6%
    18:00 +36°C° 0 mm 3 mps 732 mmHg 7%
    19:00 +35°C° 0 mm 3 mps 733 mmHg 7%
    20:00 +35°C° 0 mm 3 mps 733 mmHg 7%
    21:00 +34°C° 0 mm 3 mps 733 mmHg 7%
    22:00 +33°C° 0 mm 3 mps 733 mmHg 8%
    23:00 +33°C° 0 mm 3 mps 733 mmHg 8%
    Show more